This demonstration page uses our WeatherBlox Daily Observations layout. Learn more.

Left ArrowRight Arrow

39.08367, -84.50855

Hourly Observations for March 12, 2016

Temp ( °F °C ) Dew Point ( °F °C ) Humidity (%) Winds ( mph kmh ) Pressure ( in mb ) Visibility ( mi km ) Precip ( " mm )
12:53 am 00:53 Clear 43 6.1 43 6.1 100 100 N N/A 30.28 1025 10 16.0934 N/A
1:53 am 01:53 Clear 44 6.7 43 6.1 96 96 N N/A 30.26 1025 10 16.0934 N/A
2:53 am 02:53 Clear 45 7.2 43 6.1 93 93 N N/A 30.24 1024 10 16.0934 N/A
3:53 am 03:53 Clear 45 7.2 44 6.7 97 97 N 3 6 30.21 1023 10 16.0934 N/A
4:53 am 04:53 Clear 46 7.8 43 6.1 89 89 NNW 5 7 30.19 1022 10 16.0934 N/A
5:53 am 05:53 Clear 45 7.2 44 6.7 97 97 N N/A 30.17 1022 10 16.0934 N/A
6:53 am 06:53 Sunny 45 7.2 44 6.7 97 97 N N/A 30.18 1022 10 16.0934 N/A
7:53 am 07:53 Sunny 47 8.3 45 7.2 93 93 E 3 6 30.19 1022 10 16.0934 N/A
8:53 am 08:53 Partly Cloudy 50 10 44 6.7 80 80 N N/A 30.2 1023 10 16.0934 N/A
9:53 am 09:53 Partly Cloudy 52 11.1 44 6.7 75 75 N N/A 30.19 1022 10 16.0934 N/A
10:53 am 10:53 Sunny 55 12.8 46 7.8 72 72 WSW 5 7 30.16 1022 10 16.0934 N/A
11:53 am 11:53 Sunny 59 15 47 8.3 64 64 N N/A 30.14 1021 10 16.0934 N/A
12:53 pm 12:53 Mostly Cloudy 64 17.8 51 10.6 63 63 NE 5 7 30.11 1020 10 16.0934 N/A
1:53 pm 13:53 Cloudy 64 17.8 52 11.1 65 65 N N/A 30.07 1018 10 16.0934 N/A
2:53 pm 14:53 Cloudy 68 20 52 11.1 57 57 N 5 7 30.04 1017 10 16.0934 N/A
2:55 pm 14:55 Cloudy 68 20 54 12 60 60 N 5 7 30.03 1017 10 16.0934 N/A
3:53 pm 15:53 Partly Cloudy 68 20 54 12.2 61 61 NE 3 6 30.04 1017 10 16.0934 N/A
4:53 pm 16:53 Mostly Sunny 68 20 55 12.8 63 63 N 5 7 30.03 1017 10 16.0934 N/A
5:53 pm 17:53 Mostly Sunny 66 18.9 55 12.8 68 68 NE 6 9 30.03 1017 10 16.0934 N/A
6:53 pm 18:53 Cloudy 64 17.8 54 12.2 70 70 NNE 6 9 30.02 1017 10 16.0934 N/A
7:53 pm 19:53 Mostly Clear 62 16.7 54 12.2 75 75 NE 7 11 30 1016 10 16.0934 N/A
8:53 pm 20:53 Partly Cloudy 61 16.1 54 12.2 78 78 NE 5 7 30 1016 10 16.0934 N/A
9:53 pm 21:53 Cloudy 59 15 54 12.2 83 83 N N/A 30 1016 10 16.0934 N/A
10:53 pm 22:53 Cloudy with Light Rain 58 14.4 56 13.3 93 93 N N/A 29.99 1016 5 8.0467 0.09 2.286
11:53 pm 23:53 Cloudy with Light Rain 57 13.9 57 13.9 100 100 N N/A 29.97 1015 4 6.43736 0.03 0.762

Powered by AerisWeather